EW1060 Weather Reports


time (UTC)temp
C
wind
direction
speed
KPH
gust
KPH
rain 1hr
cm
rain 24hr
cm
rain mn
cm
humidity
%
barometer
mb
20190326054558 3 355 3.2 8.0 0.00 0.05 0.05 84 1028.8
20190326053123 3 31 0.0 3.2 0.00 0.05 0.05 86 1028.8
20190326051642 3 59 0.0 3.2 0.00 0.05 0.05 86 1028.6
20190326050101 2 91 1.6 6.4 0.00 0.05 0.05 86 1028.5
20190326044619 2 57 0.0 6.4 0.00 0.05 0.05 89 1028.5
20190326043149 2 50 0.0 3.2 0.00 0.05 0.05 90 1028.4
20190326041619 2 83 0.0 3.2 0.00 0.05 0.05 92 1028.3
20190326040143 2 215 1.6 3.2 0.00 0.05 0.05 93 1028.0
20190326034624 2 215 0.0 3.2 0.00 0.05 0.05 93 1027.7
20190326033152 2 211 0.0 4.8 0.03 0.05 0.05 93 1027.6
20190326031559 2 211 1.6 6.4 0.03 0.05 0.05 93 1027.5
20190326030100 2 219 0.0 4.8 0.03 0.05 0.05 94 1027.4
20190326024610 2 219 0.0 4.8 0.03 0.05 0.05 93 1027.3
20190326023112 2 219 1.6 6.4 0.00 0.05 0.05 94 1027.3
20190326021623 2 219 0.0 4.8 0.00 0.05 0.05 93 1027.3
20190326020114 2 192 1.6 8.0 0.00 0.05 0.05 93 1027.2
20190326014550 2 240 1.6 4.8 0.00 0.05 0.05 93 1027.0
20190326013039 2 240 1.6 4.8 0.00 0.05 0.05 92 1026.9
20190326011544 2 244 3.2 8.0 0.00 0.05 0.05 92 1026.9
20190326010111 2 105 0.0 4.8 0.05 0.05 0.05 91 1026.9
20190326004602 2 86 0.0 0.0 0.05 0.05 0.05 89 1026.8
20190326003049 3 86 0.0 3.2 0.05 0.05 0.05 89 1026.9
20190326001545 3 80 0.0 3.2 0.05 0.05 0.05 87 1026.9
20190326000059 3 88 0.0 1.6 0.00 0.00 0.00 86 1026.8
20190325234549 3 87 0.0 4.8 0.00 0.00 0.00 85 1026.5
20190325233015 3 90 0.0 8.0 0.00 0.00 0.00 84 1026.4
20190325231508 4 57 1.6 4.8 0.00 0.00 0.00 81 1026.3
20190325230002 4 110 0.0 3.2 0.00 0.00 0.00 78 1026.2
20190325224502 4 74 0.0 4.8 0.00 0.00 0.00 78 1026.1
20190325223001 4 70 0.0 4.8 0.00 0.00 0.00 78 1026.1
20190325221704 4 50 0.0 6.4 0.00 0.00 0.00 77 1026.1
20190325220144 4 83 1.6 9.7 0.00 0.00 0.00 76 1026.0
20190325214839 4 55 0.0 4.8 0.00 0.00 0.00 76 1026.0
20190325213232 4 129 0.0 3.2 0.00 0.00 0.00 76 1025.9
20190325211724 4 200 0.0 6.4 0.00 0.00 0.00 74 1025.6
20190325210148 4 255 0.0 4.8 0.00 0.00 0.00 74 1025.7
20190325204746 3 255 0.0 0.0 0.00 0.00 0.00 75 1025.7
20190325203149 4 255 0.0 0.0 0.00 0.00 0.00 74 1025.7
20190325201656 4 255 0.0 0.0 0.00 0.00 0.00 73 1025.6
20190325200132 4 255 0.0 0.0 0.00 0.00 0.00 72 1025.7
20190325194625 5 255 0.0 0.0 0.00 0.00 0.00 71 1025.5
20190325193222 5 255 0.0 4.8 0.00 0.00 0.00 69 1025.4
20190325191653 5 255 1.6 6.4 0.00 0.00 0.00 62 1025.2
20190325190154 5 15 0.0 19.3 0.00 0.00 0.00 64 1025.4
20190325184704 5 214 0.0 6.4 0.00 0.00 0.00 69 1025.3
20190325183144 5 221 3.2 4.8 0.00 0.00 0.00 70 1025.0
20190325181608 5 221 3.2 6.4 0.00 0.00 0.00 67 1024.7
20190325180115 5 221 1.6 4.8 0.00 0.00 0.00 64 1024.6
20190325174551 6 237 1.6 4.8 0.00 0.00 0.00 64 1024.3
20190325173126 6 261 4.8 11.3 0.00 0.00 0.00 63 1024.2
20190325171619 6 257 3.2 8.0 0.00 0.00 0.00 61 1024.2
20190325170124 6 198 0.0 4.8 0.00 0.00 0.00 61 1024.0
20190325164648 7 224 3.2 6.4 0.00 0.00 0.00 58 1023.7
20190325163041 7 248 3.2 8.0 0.00 0.00 0.00 56 1023.7
20190325161550 7 245 3.2 11.3 0.00 0.00 0.00 57 1023.4
20190325160057 7 327 1.6 17.7 0.00 0.00 0.00 60 1023.5
20190325154609 8 317 11.3 33.8 0.00 0.00 0.00 54 1023.5
20190325153123 8 323 1.6 9.7 0.00 0.00 0.00 55 1023.2
20190325151603 7 208 1.6 4.8 0.00 0.00 0.00 55 1023.1
20190325150040 7 246 1.6 4.8 0.00 0.00 0.00 57 1023.2
20190325144538 7 227 0.0 4.8 0.00 0.00 0.00 55 1023.4
20190325143141 7 287 3.2 8.0 0.00 0.00 0.00 56 1023.5
20190325141601 7 355 4.8 12.9 0.00 0.00 0.00 56 1023.3
20190325140051 8 344 0.0 9.7 0.00 0.00 0.00 57 1023.2
20190325134600 8 317 1.6 11.3 0.00 0.00 0.00 56 1023.0
20190325133054 8 316 1.6 8.0 0.00 0.00 0.00 57 1022.9
20190325131535 8 330 6.4 12.9 0.00 0.00 0.00 55 1022.8
20190325130025 8 304 4.8 12.9 0.00 0.00 0.00 55 1022.7
20190325124524 8 343 1.6 12.9 0.00 0.00 0.00 58 1022.8
20190325123109 8 338 1.6 6.4 0.00 0.00 0.00 58 1023.0
20190325121543 8 290 6.4 12.9 0.00 0.00 0.00 58 1022.9
20190325120048 8 350 6.4 12.9 0.00 0.00 0.00 59 1022.9
20190325114523 8 48 3.2 11.3 0.00 0.00 0.00 63 1022.9
20190325113034 8 329 3.2 6.4 0.00 0.00 0.00 70 1022.9
20190325111522 7 147 0.0 4.8 0.00 0.00 0.00 74 1022.9
20190325110007 7 202 0.0 3.2 0.00 0.00 0.00 75 1023.0
20190325104523 7 194 3.2 6.4 0.00 0.00 0.00 75 1023.0
20190325103004 7 5 0.0 3.2 0.00 0.00 0.00 76 1023.0
20190325101512 7 10 0.0 1.6 0.00 0.00 0.00 74 1022.9
20190325100149 7 348 1.6 6.4 0.00 0.00 0.00 73 1022.9
20190325094645 7 30 1.6 9.7 0.00 0.00 0.00 74 1022.9
20190325093147 7 324 1.6 8.0 0.00 0.00 0.00 77 1022.9
20190325091650 7 71 3.2 8.0 0.00 0.00 0.00 79 1022.8
20190325090315 7 5 0.0 6.4 0.00 0.00 0.00 80 1022.8
20190325084649 7 101 0.0 4.8 0.00 0.00 0.00 81 1022.8
20190325083127 7 250 3.2 9.7 0.00 0.00 0.00 82 1022.7
20190325081722 7 10 4.8 9.7 0.00 0.00 0.00 82 1022.8
20190325080225 7 318 1.6 4.8 0.00 0.00 0.00 84 1022.7
20190325074631 7 254 0.0 3.2 0.00 0.00 0.00 85 1022.5
20190325073130 7 254 0.0 0.0 0.00 0.00 0.00 84 1022.5
20190325071644 6 254 0.0 0.0 0.00 0.00 0.00 85 1022.4
20190325070209 6 254 0.0 0.0 0.00 0.00 0.00 85 1022.5
20190325064613 6 254 0.0 1.6 0.00 0.00 0.00 85 1022.5
20190325063142 6 254 0.0 4.8 0.00 0.00 0.00 85 1022.5
20190325061607 6 254 0.0 3.2 0.00 0.00 0.00 86 1022.5
20190325060125 6 257 0.0 1.6 0.00 0.00 0.00 86 1022.5